This is the latest recevied weather packets stored in our database for station/object G4ZMG. If no packets are shown the sender has not sent any weather packets the latest 10 day(s).
| Time | Temp. | Humidity | Pressure | Rain* | Wind** | Luminosity | Snow |
|---|---|---|---|---|---|---|---|
| 1777919403 | 13.89° C | 76% | 1013.4 hPa | 0 mm | - | 37 W/m² | - |
| 1777918804 | 13.89° C | 75% | 1013.3 hPa | 0 mm | - | 47 W/m² | - |
| 1777918204 | 14.44° C | 75% | 1013.1 hPa | 0 mm | - | 86 W/m² | - |
| 1777917606 | 14.44° C | 74% | 1013.1 hPa | 0 mm | - | 91 W/m² | - |
| 1777917004 | 14.44° C | 73% | 1013.1 hPa | 0 mm | - | 91 W/m² | - |
| 1777916403 | 14.44° C | 73% | 1013.1 hPa | 0 mm | - | 76 W/m² | - |
| 1777915804 | 15° C | 73% | 1012.9 hPa | 0 mm | - | 91 W/m² | - |
| 1777915203 | 15° C | 72% | 1013.1 hPa | 0 mm | - | 149 W/m² | - |
| 1777914604 | 15.56° C | 71% | 1013.1 hPa | 0 mm | - | 364 W/m² | - |
| 1777914006 | 15.56° C | 70% | 1013.1 hPa | 0 mm | - | 366 W/m² | - |
| 1777913404 | 15.56° C | 70% | 1013.2 hPa | 0 mm | - | 415 W/m² | - |
| 1777912803 | 16.11° C | 71% | 1013.2 hPa | 0 mm | - | 431 W/m² | - |
| 1777912204 | 15.56° C | 72% | 1013.3 hPa | 0 mm | - | 446 W/m² | - |
| 1777911603 | 15° C | 73% | 1013.4 hPa | 0 mm | - | 156 W/m² | - |
| 1777911003 | 15.56° C | 74% | 1013.6 hPa | 0 mm | - | 353 W/m² | - |
| 1777910406 | 15° C | 74% | 1013.6 hPa | 0 mm | - | 557 W/m² | - |
| 1777909805 | 15° C | 75% | 1013.7 hPa | 0 mm | - | 390 W/m² | - |
| 1777909204 | 15° C | 74% | 1013.7 hPa | 0 mm | - | 487 W/m² | - |
| 1777908603 | 15° C | 75% | 1013.6 hPa | 0 mm | - | 404 W/m² | - |
| 1777908005 | 14.44° C | 77% | 1013.7 hPa | 0 mm | - | 378 W/m² | - |
| 1777907405 | 14.44° C | 77% | 1013.8 hPa | 0 mm | - | 278 W/m² | - |
| 1777906806 | 14.44° C | 78% | 1013.8 hPa | 0 mm | - | 248 W/m² | - |
| 1777906216 | 14.44° C | 78% | 1013.8 hPa | 0 mm | - | 281 W/m² | - |
| 1777905603 | 13.89° C | 78% | 1013.8 hPa | 0 mm | - | 288 W/m² | - |
| 1777905005 | 13.89° C | 78% | 1013.9 hPa | 0 mm | - | 269 W/m² | - |
* Rain latest hour (hover to see other rain measurements)
** Current wind speed in m/s (hover to see current wind gust speed)